contact:dominique.lefevre@mio.osupytheas.fr, maurice.libes@osupytheas.fr, didier.mallarino@osupytheas.fr
Project:EMSO http://www.emso-fr.org/EMSO-France
Depth: 2436.0 m
Title:EMSO Ligure Ouest : Data MII capteur AQUADOPP
Date,Latitude,Longitude,X_East,Y_North,Z_Up,Amplitude_X,Amplitude_Y,Amplitude_Z,Batterie,SoundSpeed,Heading,Pitch,Roll,Pressure,TIS,Speed,Direction
, degrees North, degrees East, m.s-1, m.s-1,m.s-1, 1, 1, 1, Volt, m.s-1, degree, degree, degree, dbar, degree_C, m.s-1, degree
2020-04-08T00:04:03,42.805,6.029,-0.003,0.031,0.004,104.0,108.0,101.0,13.3,1505.3,327.3,-0.7,1.8,2470.242,13.32,0.031,354.5
2020-04-08T00:07:03,42.805,6.029,-0.015,0.007,-0.047,104.0,109.0,101.0,13.4,1505.3,324.6,-0.7,1.8,2470.225,13.32,0.016,295.0
2020-04-08T00:10:03,42.805,6.029,-0.036,0.025,-0.056,106.0,108.0,102.0,13.3,1505.3,325.2,-0.7,1.8,2470.224,13.33,0.043,304.8
2020-04-08T00:13:03,42.805,6.029,-0.016,0.013,-0.069,103.0,109.0,100.0,13.4,1505.3,324.0,-0.7,1.8,2470.221,13.33,0.02,309.1
2020-04-08T00:16:03,42.805,6.029,-0.012,0.029,0.01,104.0,107.0,101.0,13.4,1505.3,323.8,-0.7,1.8,2470.192,13.33,0.031,337.5
2020-04-08T00:19:03,42.805,6.029,-0.025,-0.014,-0.062,102.0,110.0,101.0,13.4,1505.3,323.3,-0.7,1.8,2470.276,13.33,0.028,240.7
2020-04-08T00:22:03,42.805,6.029,-0.045,0.01,-0.042,102.0,108.0,102.0,13.4,1505.3,325.5,-0.7,1.8,2470.204,13.33,0.046,282.5
2020-04-08T00:25:03,42.805,6.029,-0.014,0.026,-0.049,105.0,109.0,101.0,13.4,1505.3,327.5,-0.7,1.8,2470.193,13.33,0.029,331.7
2020-04-08T00:28:03,42.805,6.029,-0.012,0.024,-0.047,104.0,110.0,101.0,13.4,1505.4,324.8,-0.7,1.9,2470.215,13.34,0.026,333.4
2020-04-08T00:31:03,42.805,6.029,-0.014,0.015,-0.068,103.0,107.0,101.0,13.4,1505.4,326.2,-0.7,1.8,2470.194,13.34,0.02,317.0
2020-04-08T00:34:03,42.805,6.029,-0.036,0.016,-0.05,105.0,106.0,101.0,13.3,1505.4,325.9,-0.7,1.8,2470.184,13.34,0.039,294.0
2020-04-08T00:37:03,42.805,6.029,-0.019,0.027,-0.055,105.0,109.0,101.0,13.4,1505.4,327.3,-0.7,1.8,2470.192,13.34,0.033,324.9
2020-04-08T00:40:03,42.805,6.029,-0.026,0.033,-0.044,103.0,108.0,101.0,13.4,1505.4,324.4,-0.7,1.8,2470.199,13.34,0.042,321.8
2020-04-08T00:43:03,42.805,6.029,-0.044,0.017,-0.062,103.0,107.0,101.0,13.4,1505.4,326.7,-0.7,1.9,2470.168,13.34,0.047,291.1
2020-04-08T00:46:03,42.805,6.029,-0.026,0.016,-0.049,102.0,107.0,102.0,13.4,1505.4,324.1,-0.7,1.8,2470.181,13.34,0.03,301.6
2020-04-08T00:49:03,42.805,6.029,-0.013,0.024,-0.073,103.0,109.0,101.0,13.4,1505.4,328.7,-0.7,1.9,2470.174,13.34,0.027,331.6
2020-04-08T00:52:03,42.805,6.029,-0.046,0.02,-0.069,103.0,108.0,101.0,13.4,1505.4,326.6,-0.7,1.8,2470.184,13.34,0.05,293.5
2020-04-08T00:55:03,42.805,6.029,-0.027,0.034,-0.062,103.0,107.0,100.0,13.3,1505.4,326.8,-0.7,1.8,2470.196,13.34,0.043,321.5
2020-04-08T00:58:03,42.805,6.029,-0.001,0.012,-0.028,103.0,108.0,103.0,13.4,1505.4,323.8,-0.7,1.8,2470.168,13.34,0.012,355.2
2020-04-08T01:04:03,42.805,6.029,-0.007,0.013,-0.051,105.0,108.0,101.0,13.3,1505.3,325.6,-0.8,1.8,2470.193,13.32,0.014,331.7
2020-04-08T01:07:03,42.805,6.029,-0.019,0.003,-0.042,104.0,107.0,101.0,13.3,1505.3,325.8,-0.7,1.9,2470.162,13.32,0.019,279.0
2020-04-08T01:10:03,42.805,6.029,-0.036,0.019,-0.015,104.0,107.0,101.0,13.4,1505.3,328.2,-0.7,1.9,2470.211,13.33,0.04,297.8
2020-04-08T01:13:03,42.805,6.029,-0.033,0.031,-0.052,104.0,109.0,101.0,13.3,1505.3,325.6,-0.7,1.8,2470.171,13.33,0.045,313.2
2020-04-08T01:16:03,42.805,6.029,0.0,0.026,-0.036,103.0,110.0,101.0,13.3,1505.3,326.1,-0.7,1.8,2470.189,13.33,0.026,0.0
2020-04-08T01:19:03,42.805,6.029,-0.016,0.012,-0.045,102.0,108.0,100.0,13.4,1505.3,323.1,-0.7,1.8,2470.234,13.33,0.02,306.9
2020-04-08T01:22:03,42.805,6.029,-0.009,0.025,-0.048,104.0,108.0,101.0,13.3,1505.3,327.0,-0.7,1.8,2470.189,13.33,0.026,340.2
2020-04-08T01:25:03,42.805,6.029,-0.003,0.027,-0.036,104.0,107.0,102.0,13.4,1505.3,324.9,-0.7,1.8,2470.103,13.33,0.027,353.7
2020-04-08T01:28:03,42.805,6.029,-0.002,0.007,-0.03,104.0,108.0,102.0,13.4,1505.4,327.5,-0.7,1.8,2470.144,13.34,0.007,344.1
2020-04-08T01:31:03,42.805,6.029,-0.03,0.015,-0.047,103.0,107.0,101.0,13.4,1505.4,326.1,-0.8,1.8,2470.174,13.34,0.033,296.6
2020-04-08T01:34:03,42.805,6.029,-0.038,0.025,-0.032,103.0,108.0,101.0,13.4,1505.3,325.1,-0.7,1.8,2470.169,13.33,0.045,303.3
2020-04-08T01:37:03,42.805,6.029,-0.008,0.029,-0.045,104.0,106.0,102.0,13.4,1505.4,325.9,-0.7,1.8,2470.108,13.34,0.03,344.6
2020-04-08T01:40:03,42.805,6.029,-0.013,0.013,-0.035,103.0,108.0,100.0,13.4,1505.3,328.5,-0.7,1.8,2470.135,13.33,0.018,315.0
2020-04-08T01:43:03,42.805,6.029,-0.035,0.028,-0.021,105.0,108.0,101.0,13.4,1505.4,327.9,-0.7,1.8,2470.164,13.34,0.044,308.7
2020-04-08T01:46:03,42.805,6.029,-0.046,0.01,-0.07,105.0,108.0,101.0,13.4,1505.3,327.7,-0.7,1.9,2470.203,13.33,0.047,282.3
2020-04-08T01:49:03,42.805,6.029,-0.014,0.0,-0.009,104.0,106.0,102.0,13.4,1505.3,325.0,-0.7,1.8,2470.128,13.33,0.014,270.0
2020-04-08T01:52:03,42.805,6.029,-0.002,0.011,-0.032,103.0,107.0,101.0,13.3,1505.3,326.9,-0.7,1.8,2470.157,13.33,0.011,349.7
2020-04-08T01:55:03,42.805,6.029,-0.019,0.011,-0.048,103.0,106.0,102.0,13.4,1505.3,323.4,-0.7,1.8,2470.141,13.33,0.021,300.1
2020-04-08T01:58:03,42.805,6.029,-0.049,0.02,-0.055,103.0,106.0,101.0,13.4,1505.3,326.5,-0.7,1.8,2470.156,13.33,0.052,292.2
2020-04-08T02:04:03,42.805,6.029,-0.035,0.011,-0.046,103.0,106.0,101.0,13.4,1505.3,325.7,-0.8,1.8,2470.184,13.31,0.036,287.4
2020-04-08T02:07:03,42.805,6.029,-0.004,0.02,-0.033,104.0,109.0,100.0,13.4,1505.3,325.3,-0.7,1.8,2470.193,13.32,0.02,348.7
2020-04-08T02:10:03,42.805,6.029,-0.007,0.02,-0.008,103.0,106.0,101.0,13.4,1505.3,326.7,-0.7,1.8,2470.192,13.33,0.021,340.7
2020-04-08T02:13:03,42.805,6.029,-0.013,0.022,-0.06,102.0,106.0,101.0,13.4,1505.3,326.6,-0.7,1.8,2470.15,13.33,0.025,329.4
2020-04-08T02:16:03,42.805,6.029,-0.013,0.009,-0.037,101.0,108.0,101.0,13.4,1505.3,323.0,-0.7,1.9,2470.191,13.33,0.015,304.7
2020-04-08T02:19:03,42.805,6.029,-0.007,0.019,-0.026,103.0,107.0,101.0,13.4,1505.3,323.4,-0.7,1.9,2470.159,13.33,0.02,339.8
2020-04-08T02:22:03,42.805,6.029,-0.037,0.01,-0.041,102.0,108.0,101.0,13.4,1505.3,326.7,-0.7,1.8,2470.195,13.33,0.038,285.1
2020-04-08T02:25:03,42.805,6.029,0.001,0.006,-0.005,103.0,109.0,101.0,13.4,1505.3,325.1,-0.7,1.8,2470.215,13.33,0.006,9.5
2020-04-08T02:28:03,42.805,6.029,-0.011,0.028,0.002,102.0,108.0,101.0,13.4,1505.3,324.1,-0.7,1.8,2470.166,13.33,0.03,338.6
2020-04-08T02:31:03,42.805,6.029,-0.032,0.036,-0.017,103.0,106.0,102.0,13.4,1505.3,327.3,-0.8,1.8,2470.162,13.33,0.048,318.4
2020-04-08T02:34:03,42.805,6.029,-0.045,0.002,-0.062,105.0,107.0,100.0,13.3,1505.3,326.9,-0.7,1.8,2470.163,13.33,0.045,272.5
2020-04-08T02:37:03,42.805,6.029,-0.008,0.021,-0.037,104.0,108.0,101.0,13.3,1505.3,326.9,-0.7,1.8,2470.146,13.33,0.022,339.1
2020-04-08T02:40:03,42.805,6.029,-0.015,0.008,-0.045,103.0,108.0,100.0,13.3,1505.3,324.1,-0.7,1.8,2470.15,13.33,0.017,298.1
2020-04-08T02:43:03,42.805,6.029,0.005,0.012,-0.041,102.0,107.0,101.0,13.4,1505.3,324.9,-0.7,1.8,2470.205,13.33,0.013,22.6
2020-04-08T02:46:03,42.805,6.029,-0.02,-0.006,-0.062,104.0,108.0,100.0,13.3,1505.3,324.2,-0.7,1.8,2470.204,13.33,0.02,253.3
2020-04-08T02:49:03,42.805,6.029,0.001,0.028,-0.023,103.0,110.0,100.0,13.3,1505.4,328.2,-0.7,1.8,2470.213,13.34,0.028,2.0
2020-04-08T02:52:03,42.805,6.029,-0.011,0.028,-0.023,103.0,110.0,101.0,13.3,1505.3,323.5,-0.7,1.8,2470.201,13.33,0.03,338.6
2020-04-08T02:55:03,42.805,6.029,-0.013,0.005,-0.066,103.0,108.0,101.0,13.4,1505.3,326.0,-0.7,1.8,2470.175,13.33,0.013,291.0
2020-04-08T02:58:03,42.805,6.029,-0.033,0.025,-0.063,102.0,107.0,100.0,13.3,1505.3,326.0,-0.7,1.8,2470.191,13.33,0.041,307.1
2020-04-08T03:04:03,42.805,6.029,-0.028,0.018,-0.034,102.0,107.0,101.0,13.4,1505.3,325.1,-0.7,1.8,2470.247,13.31,0.033,302.7
2020-04-08T03:07:03,42.805,6.029,-0.013,0.017,-0.036,103.0,108.0,100.0,13.4,1505.3,324.2,-0.7,1.8,2470.279,13.32,0.021,322.6
2020-04-08T03:10:03,42.805,6.029,-0.031,0.003,-0.06,103.0,107.0,102.0,13.3,1505.3,323.3,-0.7,1.9,2470.215,13.33,0.031,275.5
2020-04-08T03:13:03,42.805,6.029,0.001,0.044,-0.021,102.0,109.0,101.0,13.4,1505.3,324.5,-0.7,1.8,2470.223,13.33,0.044,1.3
2020-04-08T03:16:03,42.805,6.029,-0.02,0.013,-0.05,103.0,108.0,101.0,13.3,1505.3,323.3,-0.7,1.8,2470.232,13.33,0.023,303.0
2020-04-08T03:19:03,42.805,6.029,-0.005,0.031,-0.014,103.0,108.0,101.0,13.4,1505.3,325.6,-0.7,1.8,2470.219,13.33,0.031,350.8
2020-04-08T03:22:03,42.805,6.029,-0.042,0.047,-0.024,105.0,106.0,101.0,13.4,1505.3,323.8,-0.7,1.9,2470.217,13.33,0.063,318.2
2020-04-08T03:25:03,42.805,6.029,-0.022,0.009,-0.035,103.0,108.0,101.0,13.4,1505.3,325.4,-0.7,1.8,2470.237,13.33,0.023,292.2
2020-04-08T03:28:03,42.805,6.029,-0.02,0.021,-0.06,103.0,108.0,101.0,13.4,1505.3,324.9,-0.7,1.8,2470.245,13.33,0.028,316.4
2020-04-08T03:31:03,42.805,6.029,-0.024,0.031,-0.048,103.0,106.0,100.0,13.4,1505.3,325.0,-0.7,1.8,2470.224,13.33,0.039,322.3
2020-04-08T03:34:03,42.805,6.029,-0.032,0.023,-0.031,103.0,109.0,100.0,13.4,1505.3,327.9,-0.7,1.8,2470.241,13.33,0.039,305.7
2020-04-08T03:37:03,42.805,6.029,-0.025,0.026,-0.044,103.0,110.0,103.0,13.4,1505.3,326.6,-0.7,1.8,2470.246,13.33,0.036,316.1
2020-04-08T03:40:03,42.805,6.029,-0.001,0.03,-0.025,103.0,109.0,102.0,13.4,1505.3,328.1,-0.7,1.8,2470.263,13.33,0.03,358.1
2020-04-08T03:43:03,42.805,6.029,-0.037,0.025,-0.048,103.0,108.0,102.0,13.4,1505.3,328.1,-0.7,1.9,2470.225,13.33,0.044,304.0
2020-04-08T03:46:03,42.805,6.029,-0.002,0.026,-0.037,103.0,107.0,101.0,13.4,1505.3,325.9,-0.7,1.8,2470.299,13.33,0.026,355.6
2020-04-08T03:49:03,42.805,6.029,-0.017,0.01,-0.034,103.0,109.0,101.0,13.3,1505.3,326.4,-0.7,1.8,2470.256,13.33,0.019,300.5
2020-04-08T03:52:03,42.805,6.029,-0.02,0.053,-0.034,105.0,108.0,101.0,13.4,1505.3,328.0,-0.7,1.8,2470.245,13.33,0.056,339.3
2020-04-08T03:55:03,42.805,6.029,-0.016,0.023,-0.011,104.0,109.0,101.0,13.4,1505.3,326.6,-0.7,1.8,2470.283,13.33,0.028,325.2
2020-04-08T03:58:03,42.805,6.029,-0.021,0.029,-0.027,104.0,108.0,102.0,13.4,1505.3,324.7,-0.7,1.8,2470.29,13.33,0.035,324.1
2020-04-08T04:04:03,42.805,6.029,-0.037,0.023,-0.026,103.0,108.0,100.0,13.3,1505.3,326.0,-0.7,1.8,2470.309,13.31,0.043,301.9
2020-04-08T04:07:03,42.805,6.029,-0.041,0.011,-0.065,104.0,108.0,102.0,13.4,1505.3,323.8,-0.7,1.8,2470.312,13.32,0.042,285.0
2020-04-08T04:10:03,42.805,6.029,-0.017,0.021,-0.031,102.0,109.0,102.0,13.3,1505.3,326.8,-0.7,1.8,2470.305,13.33,0.027,321.0
2020-04-08T04:13:03,42.805,6.029,0.016,0.025,-0.015,104.0,107.0,102.0,13.3,1505.3,326.6,-0.7,1.8,2470.276,13.33,0.029,32.6
2020-04-08T04:16:03,42.805,6.029,-0.012,0.026,-0.033,104.0,108.0,101.0,13.3,1505.3,324.5,-0.7,1.8,2470.297,13.33,0.028,335.2
2020-04-08T04:19:03,42.805,6.029,-0.014,0.018,-0.021,103.0,108.0,102.0,13.3,1505.3,323.3,-0.7,1.8,2470.303,13.33,0.022,322.1
2020-04-08T04:22:03,42.805,6.029,-0.035,0.02,-0.035,104.0,108.0,101.0,13.3,1505.3,326.7,-0.7,1.8,2470.331,13.33,0.04,299.7
2020-04-08T04:25:03,42.805,6.029,-0.013,0.026,-0.045,104.0,108.0,102.0,13.4,1505.3,328.1,-0.7,1.8,2470.276,13.33,0.029,333.4
2020-04-08T04:28:03,42.805,6.029,-0.015,0.037,-0.032,103.0,107.0,100.0,13.3,1505.4,324.4,-0.7,1.8,2470.264,13.34,0.039,337.9
2020-04-08T04:31:03,42.805,6.029,-0.017,0.021,-0.037,104.0,108.0,102.0,13.4,1505.4,328.0,-0.7,1.8,2470.335,13.34,0.027,321.0
2020-04-08T04:34:03,42.805,6.029,-0.023,0.027,-0.015,105.0,107.0,103.0,13.3,1505.3,326.5,-0.7,1.9,2470.257,13.33,0.035,319.6
2020-04-08T04:37:03,42.805,6.029,-0.011,0.015,-0.024,104.0,109.0,103.0,13.3,1505.3,326.8,-0.7,1.8,2470.3,13.33,0.018,323.7
2020-04-08T04:40:03,42.805,6.029,-0.031,0.025,-0.044,104.0,108.0,102.0,13.4,1505.3,328.0,-0.7,1.8,2470.313,13.33,0.039,308.9
2020-04-08T04:43:03,42.805,6.029,0.009,0.019,-0.014,104.0,106.0,100.0,13.4,1505.3,326.3,-0.7,1.8,2470.298,13.33,0.021,25.3
2020-04-08T04:46:03,42.805,6.029,-0.017,0.026,-0.044,105.0,106.0,101.0,13.4,1505.4,324.7,-0.7,1.8,2470.333,13.34,0.031,326.8
2020-04-08T04:49:03,42.805,6.029,-0.014,0.014,-0.047,103.0,109.0,101.0,13.4,1505.4,323.7,-0.7,1.8,2470.326,13.34,0.019,315.0
2020-04-08T04:52:03,42.805,6.029,-0.004,0.034,-0.027,103.0,108.0,101.0,13.4,1505.3,327.9,-0.7,1.8,2470.361,13.33,0.034,353.3
2020-04-08T04:55:03,42.805,6.029,0.012,0.038,-0.02,104.0,108.0,101.0,13.3,1505.3,326.3,-0.7,1.8,2470.329,13.33,0.039,17.5
2020-04-08T04:58:03,42.805,6.029,-0.003,0.021,-0.05,104.0,109.0,102.0,13.3,1505.3,324.2,-0.7,1.8,2470.365,13.33,0.021,351.9
2020-04-08T05:04:03,42.805,6.029,-0.018,0.032,-0.024,103.0,108.0,101.0,13.4,1505.3,326.9,-0.7,1.8,2470.425,13.31,0.036,330.6
2020-04-08T05:07:03,42.805,6.029,-0.014,0.026,-0.052,103.0,107.0,101.0,13.4,1505.3,325.6,-0.7,1.8,2470.368,13.32,0.029,331.7
2020-04-08T05:10:03,42.805,6.029,-0.029,0.047,-0.018,104.0,108.0,101.0,13.4,1505.3,326.9,-0.7,1.8,2470.407,13.33,0.055,328.3
2020-04-08T05:13:03,42.805,6.029,0.005,0.009,-0.015,104.0,107.0,101.0,13.4,1505.3,324.7,-0.7,1.9,2470.361,13.33,0.01,29.1
2020-04-08T05:16:03,42.805,6.029,-0.007,0.011,-0.014,103.0,109.0,102.0,13.4,1505.3,324.5,-0.7,1.8,2470.371,13.33,0.013,327.5
2020-04-08T05:19:03,42.805,6.029,-0.024,0.036,-0.005,104.0,109.0,101.0,13.4,1505.3,326.5,-0.7,1.8,2470.373,13.33,0.043,326.3
2020-04-08T05:22:03,42.805,6.029,-0.008,0.035,-0.012,102.0,109.0,101.0,13.4,1505.3,328.3,-0.7,1.8,2470.399,13.33,0.035,347.1
2020-04-08T05:25:03,42.805,6.029,-0.041,0.045,-0.037,103.0,107.0,102.0,13.3,1505.3,328.0,-0.7,1.8,2470.411,13.33,0.06,317.7
2020-04-08T05:28:03,42.805,6.029,-0.022,0.022,-0.052,103.0,107.0,100.0,13.4,1505.3,326.4,-0.7,1.8,2470.348,13.33,0.031,315.0
2020-04-08T05:31:03,42.805,6.029,-0.004,0.012,-0.04,103.0,108.0,100.0,13.4,1505.3,327.4,-0.8,1.8,2470.417,13.33,0.012,341.6
2020-04-08T05:34:03,42.805,6.029,-0.018,0.027,-0.014,103.0,107.0,101.0,13.4,1505.3,324.9,-0.7,1.8,2470.426,13.33,0.032,326.3
2020-04-08T05:37:03,42.805,6.029,0.0,0.023,-0.065,103.0,109.0,100.0,13.4,1505.3,324.7,-0.7,1.9,2470.36,13.33,0.023,0.0
2020-04-08T05:40:03,42.805,6.029,-0.009,0.028,-0.019,103.0,108.0,102.0,13.4,1505.3,326.0,-0.7,1.8,2470.443,13.33,0.029,342.2
2020-04-08T05:43:03,42.805,6.029,-0.024,0.035,-0.024,103.0,108.0,100.0,13.4,1505.3,323.9,-0.7,1.8,2470.38,13.33,0.042,325.6
2020-04-08T05:46:03,42.805,6.029,0.005,0.044,-0.034,102.0,109.0,100.0,13.4,1505.3,326.7,-0.7,1.8,2470.435,13.33,0.044,6.5
2020-04-08T05:49:03,42.805,6.029,-0.003,0.029,-0.024,101.0,108.0,101.0,13.4,1505.3,326.0,-0.7,1.8,2470.398,13.33,0.029,354.1
2020-04-08T05:52:03,42.805,6.029,-0.026,0.032,-0.039,103.0,109.0,100.0,13.3,1505.3,324.8,-0.7,1.8,2470.432,13.33,0.041,320.9
2020-04-08T05:55:03,42.805,6.029,-0.01,0.011,-0.051,103.0,107.0,101.0,13.3,1505.3,326.7,-0.7,1.8,2470.406,13.33,0.014,317.7
2020-04-08T05:58:03,42.805,6.029,-0.004,0.022,-0.032,102.0,106.0,99.0,13.4,1505.3,325.9,-0.7,1.9,2470.406,13.33,0.022,349.7
2020-04-08T06:04:03,42.805,6.029,-0.01,0.019,-0.036,102.0,108.0,100.0,13.4,1505.3,328.3,-0.7,1.9,2470.432,13.31,0.021,332.2
2020-04-08T06:07:03,42.805,6.029,-0.031,0.027,-0.051,102.0,107.0,100.0,13.4,1505.3,325.9,-0.7,1.8,2470.421,13.32,0.041,311.1
2020-04-08T06:10:03,42.805,6.029,-0.035,0.04,-0.04,103.0,109.0,101.0,13.4,1505.3,324.1,-0.7,1.8,2470.443,13.32,0.053,318.8
2020-04-08T06:13:03,42.805,6.029,-0.036,0.039,-0.034,102.0,108.0,101.0,13.4,1505.3,324.5,-0.7,1.8,2470.424,13.33,0.053,317.3
2020-04-08T06:16:03,42.805,6.029,-0.02,0.016,-0.078,102.0,108.0,101.0,13.3,1505.3,326.7,-0.7,1.8,2470.435,13.33,0.025,308.7
2020-04-08T06:19:03,42.805,6.029,-0.029,0.031,-0.047,103.0,106.0,101.0,13.4,1505.3,328.0,-0.7,1.8,2470.425,13.33,0.042,316.9
2020-04-08T06:22:03,42.805,6.029,0.0,0.025,-0.034,104.0,109.0,100.0,13.4,1505.3,324.7,-0.7,1.8,2470.424,13.33,0.025,0.0
2020-04-08T06:25:03,42.805,6.029,-0.024,0.041,-0.054,103.0,108.0,100.0,13.4,1505.3,325.3,-0.7,1.8,2470.483,13.33,0.047,329.7
2020-04-08T06:28:03,42.805,6.029,-0.032,0.028,-0.05,103.0,108.0,102.0,13.3,1505.3,324.8,-0.7,1.9,2470.437,13.33,0.042,311.2
2020-04-08T06:31:03,42.805,6.029,-0.024,0.017,-0.033,103.0,107.0,100.0,13.3,1505.3,326.5,-0.7,1.9,2470.443,13.33,0.029,305.3
2020-04-08T06:34:03,42.805,6.029,-0.012,0.038,-0.023,101.0,108.0,100.0,13.4,1505.3,325.2,-0.7,1.8,2470.46,13.33,0.039,342.5
2020-04-08T06:37:03,42.805,6.029,-0.002,0.03,-0.025,103.0,107.0,101.0,13.4,1505.3,326.3,-0.7,1.9,2470.422,13.33,0.03,356.2
2020-04-08T06:40:03,42.805,6.029,-0.002,0.038,-0.017,103.0,104.0,101.0,13.3,1505.3,325.5,-0.7,1.9,2470.434,13.33,0.038,357.0
2020-04-08T06:43:03,42.805,6.029,-0.023,0.031,-0.026,102.0,106.0,102.0,13.4,1505.3,323.8,-0.7,1.8,2470.408,13.33,0.038,323.4
2020-04-08T06:46:03,42.805,6.029,-0.01,0.038,-0.047,104.0,107.0,100.0,13.3,1505.3,326.9,-0.7,1.8,2470.456,13.33,0.039,345.3
2020-04-08T06:49:03,42.805,6.029,-0.024,0.038,-0.043,103.0,108.0,100.0,13.3,1505.3,324.1,-0.7,1.8,2470.435,13.33,0.044,327.7
2020-04-08T06:52:03,42.805,6.029,-0.021,0.019,-0.042,103.0,108.0,101.0,13.4,1505.3,327.4,-0.7,1.8,2470.42,13.33,0.028,312.1
2020-04-08T06:55:03,42.805,6.029,0.004,0.009,-0.006,102.0,107.0,101.0,13.4,1505.3,324.8,-0.7,1.8,2470.435,13.33,0.009,24.0
2020-04-08T06:58:03,42.805,6.029,-0.025,0.034,-0.024,102.0,108.0,101.0,13.4,1505.3,323.9,-0.7,1.8,2470.426,13.33,0.042,323.7
2020-04-08T07:04:03,42.805,6.029,0.005,0.031,-0.037,101.0,107.0,100.0,13.4,1505.3,325.8,-0.7,1.8,2470.458,13.31,0.031,9.2
2020-04-08T07:07:03,42.805,6.029,-0.005,0.035,-0.021,103.0,108.0,101.0,13.4,1505.3,327.6,-0.7,1.9,2470.428,13.32,0.035,351.9
2020-04-08T07:10:03,42.805,6.029,-0.007,0.037,-0.046,103.0,109.0,101.0,13.3,1505.3,326.0,-0.7,1.8,2470.451,13.32,0.037,349.3
2020-04-08T07:13:03,42.805,6.029,-0.023,0.029,-0.039,102.0,108.0,100.0,13.4,1505.3,325.0,-0.7,1.8,2470.431,13.33,0.037,321.6
2020-04-08T07:16:03,42.805,6.029,-0.012,0.025,-0.049,103.0,107.0,101.0,13.4,1505.3,325.1,-0.7,1.8,2470.443,13.33,0.027,334.4
2020-04-08T07:19:03,42.805,6.029,-0.01,0.019,-0.028,105.0,107.0,100.0,13.3,1505.3,324.9,-0.7,1.8,2470.444,13.33,0.021,332.2
2020-04-08T07:22:03,42.805,6.029,-0.006,0.014,-0.053,103.0,109.0,100.0,13.3,1505.3,323.7,-0.7,1.8,2470.449,13.33,0.015,336.8
2020-04-08T07:25:03,42.805,6.029,-0.021,0.014,-0.022,103.0,109.0,101.0,13.4,1505.3,324.4,-0.7,1.8,2470.439,13.33,0.025,303.7
2020-04-08T07:28:03,42.805,6.029,0.017,0.016,-0.034,102.0,108.0,101.0,13.4,1505.3,327.9,-0.7,1.9,2470.469,13.33,0.023,46.7
2020-04-08T07:31:03,42.805,6.029,-0.02,0.032,-0.015,105.0,108.0,101.0,13.4,1505.3,325.9,-0.7,1.8,2470.449,13.33,0.037,328.0
2020-04-08T07:34:03,42.805,6.029,-0.004,0.012,-0.056,103.0,109.0,101.0,13.4,1505.3,325.1,-0.7,1.8,2470.464,13.33,0.012,341.6
2020-04-08T07:37:03,42.805,6.029,-0.036,0.032,-0.05,104.0,107.0,102.0,13.4,1505.3,328.4,-0.7,1.8,2470.437,13.33,0.048,311.6
2020-04-08T07:40:03,42.805,6.029,0.004,0.013,-0.032,102.0,109.0,102.0,13.4,1505.3,328.3,-0.7,1.8,2470.436,13.33,0.013,17.1
2020-04-08T07:43:03,42.805,6.029,-0.029,0.032,-0.052,105.0,106.0,100.0,13.3,1505.3,326.9,-0.7,1.8,2470.399,13.33,0.043,317.8
2020-04-08T07:46:03,42.805,6.029,-0.015,0.022,-0.022,103.0,106.0,101.0,13.4,1505.3,328.6,-0.7,1.8,2470.394,13.33,0.026,325.7
2020-04-08T07:49:03,42.805,6.029,-0.015,0.011,-0.066,102.0,107.0,101.0,13.3,1505.3,327.8,-0.7,1.8,2470.429,13.33,0.018,306.3
2020-04-08T07:52:03,42.805,6.029,-0.018,0.018,-0.039,103.0,108.0,102.0,13.4,1505.3,327.6,-0.7,1.8,2470.413,13.33,0.025,315.0
2020-04-08T07:55:03,42.805,6.029,-0.016,0.033,-0.067,103.0,105.0,100.0,13.4,1505.3,325.6,-0.7,1.9,2470.426,13.33,0.036,334.1
2020-04-08T07:58:03,42.805,6.029,-0.003,0.03,-0.04,104.0,107.0,100.0,13.3,1505.3,326.4,-0.7,1.9,2470.43,13.33,0.03,354.3
2020-04-08T08:04:03,42.805,6.029,-0.022,0.028,-0.052,103.0,108.0,100.0,13.3,1505.3,327.3,-0.8,1.9,2470.441,13.31,0.035,321.8
2020-04-08T08:07:03,42.805,6.029,-0.016,0.042,-0.045,103.0,108.0,101.0,13.4,1505.3,327.0,-0.8,1.8,2470.453,13.32,0.044,339.1
2020-04-08T08:10:03,42.805,6.029,-0.021,0.023,-0.035,104.0,109.0,102.0,13.4,1505.3,324.6,-0.7,1.8,2470.438,13.32,0.031,317.6
2020-04-08T08:13:03,42.805,6.029,-0.008,0.008,-0.042,103.0,107.0,101.0,13.4,1505.3,323.5,-0.7,1.8,2470.479,13.33,0.011,315.0
2020-04-08T08:16:03,42.805,6.029,-0.015,0.026,-0.037,103.0,108.0,101.0,13.3,1505.3,327.1,-0.7,1.8,2470.397,13.33,0.03,330.0
2020-04-08T08:19:03,42.805,6.029,-0.005,0.035,-0.024,102.0,107.0,102.0,13.4,1505.3,324.3,-0.7,1.8,2470.404,13.33,0.035,351.9
2020-04-08T08:22:03,42.805,6.029,-0.031,0.048,-0.037,104.0,107.0,99.0,13.4,1505.3,326.9,-0.7,1.8,2470.418,13.33,0.057,327.1
2020-04-08T08:25:03,42.805,6.029,-0.028,0.0,-0.037,101.0,105.0,101.0,13.3,1505.3,323.5,-0.7,1.8,2470.403,13.33,0.028,270.0
2020-04-08T08:28:03,42.805,6.029,-0.027,0.031,-0.034,102.0,106.0,101.0,13.3,1505.3,325.9,-0.7,1.8,2470.397,13.33,0.041,318.9
2020-04-08T08:31:03,42.805,6.029,-0.046,0.035,-0.04,103.0,107.0,100.0,13.3,1505.3,324.2,-0.8,1.8,2470.411,13.33,0.057,307.3
2020-04-08T08:34:03,42.805,6.029,-0.026,0.026,-0.041,104.0,107.0,101.0,13.4,1505.3,326.3,-0.7,1.8,2470.424,13.33,0.036,315.0
2020-04-08T08:37:03,42.805,6.029,-0.017,0.011,-0.079,102.0,108.0,100.0,13.4,1505.3,323.7,-0.7,1.8,2470.418,13.33,0.02,302.9
2020-04-08T08:40:03,42.805,6.029,-0.008,0.002,-0.002,102.0,109.0,100.0,13.4,1505.3,326.8,-0.7,1.8,2470.424,13.33,0.008,284.0
2020-04-08T08:43:03,42.805,6.029,-0.035,0.027,-0.066,103.0,107.0,100.0,13.4,1505.3,326.5,-0.7,1.9,2470.412,13.33,0.044,307.7
2020-04-08T08:46:03,42.805,6.029,-0.021,0.012,-0.035,104.0,106.0,102.0,13.4,1505.3,324.2,-0.7,1.8,2470.377,13.33,0.024,299.7
2020-04-08T08:49:03,42.805,6.029,-0.005,0.021,-0.034,103.0,105.0,101.0,13.4,1505.3,324.8,-0.7,1.8,2470.395,13.33,0.021,346.6
2020-04-08T08:52:03,42.805,6.029,-0.026,0.026,-0.063,103.0,108.0,100.0,13.4,1505.3,325.7,-0.7,1.8,2470.359,13.33,0.036,315.0
2020-04-08T08:55:03,42.805,6.029,-0.016,0.007,-0.052,102.0,106.0,100.0,13.4,1505.3,328.0,-0.7,1.8,2470.41,13.33,0.017,293.6
2020-04-08T08:58:03,42.805,6.029,-0.035,0.025,-0.064,103.0,105.0,101.0,13.3,1505.3,327.4,-0.7,1.8,2470.392,13.33,0.043,305.5
2020-04-08T09:04:03,42.805,6.029,-0.016,0.027,-0.052,103.0,108.0,100.0,13.4,1505.3,323.9,-0.7,1.8,2470.429,13.31,0.031,329.3
2020-04-08T09:07:03,42.805,6.029,-0.03,0.004,-0.059,104.0,105.0,101.0,13.3,1505.3,327.4,-0.7,1.8,2470.359,13.32,0.03,277.6
2020-04-08T09:10:03,42.805,6.029,-0.045,0.019,-0.054,102.0,106.0,100.0,13.4,1505.3,327.6,-0.7,1.8,2470.402,13.32,0.048,292.9
2020-04-08T09:13:03,42.805,6.029,-0.026,0.011,-0.057,103.0,106.0,101.0,13.4,1505.3,326.0,-0.7,1.9,2470.367,13.33,0.028,292.9
2020-04-08T09:16:03,42.805,6.029,-0.009,0.029,-0.043,102.0,108.0,100.0,13.4,1505.3,325.0,-0.7,1.9,2470.413,13.33,0.03,342.8
2020-04-08T09:19:03,42.805,6.029,-0.023,0.044,-0.042,103.0,106.0,100.0,13.4,1505.3,326.4,-0.7,1.8,2470.397,13.33,0.049,332.4
2020-04-08T09:22:03,42.805,6.029,-0.029,0.013,-0.059,103.0,106.0,102.0,13.4,1505.3,327.9,-0.7,1.8,2470.375,13.33,0.031,294.1
2020-04-08T09:25:03,42.805,6.029,-0.031,0.026,-0.034,103.0,109.0,100.0,13.4,1505.3,328.5,-0.7,1.8,2470.373,13.33,0.04,310.0
2020-04-08T09:28:03,42.805,6.029,-0.027,0.019,-0.036,104.0,106.0,100.0,13.3,1505.3,328.2,-0.7,1.8,2470.373,13.33,0.033,305.1
2020-04-08T09:31:03,42.805,6.029,-0.027,0.043,-0.006,103.0,106.0,100.0,13.4,1505.3,324.9,-0.7,1.9,2470.38,13.33,0.05,327.9
2020-04-08T09:34:03,42.805,6.029,-0.027,0.003,-0.059,102.0,107.0,100.0,13.4,1505.3,325.1,-0.7,1.8,2470.386,13.33,0.027,276.3
2020-04-08T09:40:03,42.805,6.029,-0.026,0.042,-0.042,102.0,107.0,101.0,13.4,1505.3,324.6,-0.8,1.8,2470.466,13.31,0.049,328.2
2020-04-08T09:43:03,42.805,6.029,-0.01,0.009,-0.005,103.0,107.0,101.0,13.4,1505.3,326.0,-0.7,1.8,2470.393,13.32,0.013,312.0
2020-04-08T09:46:03,42.805,6.029,0.006,0.038,-0.023,102.0,106.0,101.0,13.3,1505.3,323.4,-0.7,1.8,2470.341,13.32,0.038,9.0
2020-04-08T09:49:03,42.805,6.029,-0.046,0.019,-0.07,103.0,108.0,100.0,13.3,1505.3,326.7,-0.7,1.8,2470.377,13.33,0.049,292.4
2020-04-08T09:52:03,42.805,6.029,-0.022,0.026,-0.049,102.0,107.0,100.0,13.3,1505.3,325.9,-0.7,1.8,2470.406,13.33,0.034,319.8
2020-04-08T09:55:03,42.805,6.029,-0.029,0.014,-0.043,103.0,106.0,101.0,13.4,1505.3,324.7,-0.7,1.8,2470.375,13.33,0.032,295.8
2020-04-08T09:58:03,42.805,6.029,-0.018,0.018,-0.038,103.0,105.0,101.0,13.4,1505.3,325.0,-0.7,1.8,2470.373,13.33,0.025,315.0